Volver al catálogo

SL-12 R/B(2)

ActivoGEO
NORAD 23322·ROCKET BODY·🇷🇺 Russia

Lanzado Oct 13, 1994 desde Baikonur Cosmodrome

Loading…

TLE

ActualizadoSource: Space-Track

Época: Sep 14, 2026, 05:40 UTC

1 23322U 94067D   26257.23639523 -.00000264  00000-0  00000-0 0  9996
2 23322  13.8152 344.2143 0006704 159.8044 218.6013  1.00171008116909

Sigue SL-12 R/B(2) en tiempo real con AllMySat

Download on the App Store